Theta_e
321 326 328 327 326 322 319 321 321 320 320 317 316 316 315 314 313 313 312 311 313 322 324 326 327 329 330 331 331 331 331 332 332 331 329 328 327 326 325 324 322 322 322 323
323 326 323 324 326 325 323 324 323 321 320 319 320 321 318 315 314 314 313 313 311 311 319 324 326 327 328 329 330 329 329 330 331 332 332 329 327 327 327 326 326 324 323 322
325 322 320 322 325 326 326 327 324 323 319 316 318 319 318 316 315 316 313 314 313 312 310 312 323 326 327 327 328 329 329 329 330 330 331 330 327 327 327 326 326 325 324 323
323 320 321 323 324 323 326 322 323 325 326 326 318 321 313 318 317 316 315 313 315 313 309 310 314 323 325 327 327 328 328 329 329 329 330 329 328 326 326 326 327 326 325 324
322 320 322 324 323 323 325 322 324 326 324 323 323 324 320 319 319 318 318 316 313 315 314 313 310 318 321 324 326 328 327 328 329 328 328 328 328 328 327 326 326 326 326 325
320 317 320 321 320 321 319 322 322 320 323 327 322 323 319 318 319 319 318 317 315 314 313 311 313 314 320 321 325 327 327 327 328 329 328 328 328 327 327 327 326 326 326 326
321 321 318 318 322 321 322 322 326 326 327 325 314 321 320 315 315 316 316 315 313 312 312 311 309 311 319 322 324 326 327 326 327 328 328 328 328 327 327 327 327 325 325 326
320 322 320 317 321 323 322 322 322 324 323 319 316 320 317 315 316 314 312 313 312 311 309 310 308 309 314 320 323 325 326 326 327 327 328 328 327 327 327 327 327 327 326 326
317 318 317 317 318 320 323 325 317 316 299 312 315 315 312 311 314 314 313 311 313 313 310 307 307 309 310 316 321 324 325 326 326 327 327 327 327 327 327 327 327 327 327 326
317 321 317 317 318 318 321 318 324 318 321 317 315 314 317 314 315 316 314 313 311 310 309 306 301 306 309 311 317 322 325 325 326 326 326 327 327 327 327 326 326 326 326 324
318 320 318 318 321 322 321 323 321 320 315 317 317 316 309 313 313 315 314 313 310 309 308 305 300 304 307 308 311 318 322 325 325 325 325 325 325 325 325 325 325 325 324 324
315 316 319 322 315 317 320 320 322 325 321 315 313 318 308 309 309 309 308 308 308 306 306 303 300 302 304 308 311 313 318 322 324 325 326 326 325 324 323 322 322 322 322 322
312 315 317 318 316 317 321 321 320 321 315 320 321 320 306 303 303 302 303 305 306 304 302 300 300 300 302 304 307 313 317 320 322 323 324 325 325 325 324 323 321 321 321 321
314 312 314 313 315 316 321 321 321 321 324 323 320 319 316 310 307 304 303 302 304 303 301 301 301 300 302 304 305 305 305 306 307 309 312 317 320 321 322 322 321 322 322 322
312 315 312 313 313 313 318 320 320 322 321 322 320 319 318 315 309 307 304 303 303 303 302 302 302 301 301 303 304 305 305 306 306 306 306 306 307 307 308 309 311 312 312 314
310 312 314 313 311 311 312 311 314 321 322 321 320 320 317 313 311 310 306 304 303 302 302 302 302 300 300 303 304 304 305 305 306 306 306 307 307 308 308 308 308 309 308 310
311 312 311 313 312 313 314 312 311 312 319 321 321 319 317 315 312 311 312 311 304 303 303 303 302 300 302 304 305 304 304 305 305 305 305 306 306 306 307 307 307 308 308 308
310 310 309 313 312 317 313 310 311 312 311 315 317 318 318 317 315 310 309 311 306 303 301 301 301 302 303 303 303 304 304 304 304 304 304 304 305 305 305 305 305 304 303 303
307 306 305 308 308 308 307 308 313 313 314 311 314 315 316 315 309 309 310 307 307 303 301 302 304 303 303 303 304 303 302 302 302 302 303 303 303 304 303 302 302 302 301 301
304 305 306 307 308 308 305 305 308 313 318 314 314 316 316 312 317 317 315 305 303 301 301 302 304 303 302 302 303 302 301 301 301 301 301 301 300 301 301 300 299 300 299 298
306 308 308 306 305 302 304 304 308 315 313 311 313 314 315 316 317 316 314 311 305 302 299 301 301 301 303 302 302 300 299 299 299 298 298 298 298 299 299 298 299 298 297 296
308 308 309 307 309 309 305 307 309 309 309 309 310 313 314 314 315 314 312 306 299 296 296 299 298 299 300 300 300 297 296 296 296 296 296 296 296 296 296 297 296 296 295 294
306 309 309 309 307 306 304 309 309 309 309 309 310 310 310 312 313 313 311 300 298 297 297 297 297 295 296 298 298 295 294 295 295 295 294 294 294 294 295 295 293 292 291 291
305 306 309 309 309 308 305 302 303 304 302 300 301 305 307 309 310 310 302 299 297 294 293 293 292 291 289 294 295 297 294 294 294 293 292 291 292 290 290 290 289 289 288 287
302 305 309 308 308 302 304 297 291 293 298 300 299 300 301 303 304 305 299 297 296 293 290 291 292 290 287 290 293 293 293 293 292 291 289 289 288 288 287 287 287 287 286 286
291 293 305 312 289 288 291 291 288 291 291 294 299 300 299 299 301 298 296 294 292 289 288 288 287 286 284 287 289 290 291 292 291 288 287 287 287 287 287 286 285 285 285 285
Wind_Speed
4 4 7 5 7 2 5 2 5 4 3 4 7 12 9 11 5 8 9 8 8 11 21 16 26 32 32 31 32 33 35 35 33 32 31 30 32 30 28 28 27 26 25 23
4 14 16 9 5 2 3 1 3 4 4 4 7 13 9 8 8 10 12 13 12 7 7 15 24 28 33 35 35 36 37 37 37 37 36 33 32 33 32 30 29 28 27 26
7 2 10 6 5 6 5 5 3 4 5 3 5 11 10 7 8 11 9 11 10 13 12 10 18 30 32 35 40 40 40 40 40 39 36 33 31 29 30 34 33 33 31 29
9 5 13 10 14 15 16 8 9 6 3 4 1 9 7 5 10 10 10 11 16 13 10 12 16 21 31 39 38 39 42 41 40 39 34 35 31 29 32 35 37 36 33 32
7 8 13 11 8 12 4 7 6 2 3 3 5 5 6 2 6 9 13 12 13 17 15 16 16 28 35 35 38 42 39 41 41 39 38 36 34 31 33 31 34 34 34 34
4 1 11 7 7 13 7 5 3 3 0 9 11 8 6 8 8 8 16 12 12 13 12 13 21 25 29 34 34 36 38 42 41 41 40 40 38 34 27 32 33 36 36 35
5 6 2 5 6 4 6 8 2 3 5 9 2 9 19 6 8 13 13 13 12 10 9 10 10 15 24 31 35 35 38 38 40 42 42 43 44 37 37 38 37 33 36 37
10 7 18 9 7 4 17 9 4 7 5 4 3 9 7 12 18 11 10 10 7 8 8 9 10 16 21 28 33 36 36 37 38 41 44 44 42 41 40 35 35 36 36 38
6 10 4 5 7 13 6 11 1 3 2 2 5 9 9 10 11 13 16 11 15 13 9 9 10 18 24 27 32 36 36 37 36 40 40 39 40 40 38 38 37 38 37 37
3 3 6 7 4 8 13 8 4 2 4 5 6 6 12 1 10 15 13 15 14 9 8 8 7 10 17 23 27 30 33 35 37 39 38 37 38 40 40 36 37 38 38 35
3 2 2 9 14 18 6 10 5 5 4 4 5 8 8 15 14 18 16 15 9 8 9 9 7 10 9 14 21 26 29 32 32 33 34 34 35 35 35 35 36 36 34 34
11 2 4 10 4 9 16 15 14 5 16 5 1 15 4 8 7 5 10 8 7 8 9 7 7 9 8 8 14 20 25 28 29 27 27 28 29 29 30 31 31 30 31 30
12 8 8 3 2 2 14 20 18 21 2 15 11 18 4 2 5 8 11 10 8 6 5 6 6 7 11 10 9 11 14 17 18 19 20 20 20 20 21 23 23 22 23 24
10 5 9 17 4 4 10 16 21 19 12 23 18 31 21 6 4 9 10 8 8 7 8 6 7 7 12 12 11 10 10 10 11 12 13 15 16 17 17 17 18 16 15 15
4 6 12 17 12 10 9 13 24 25 28 18 33 27 39 18 8 9 6 7 5 8 8 9 8 7 11 12 13 12 11 11 11 10 10 9 9 9 10 11 12 12 12 12
2 8 4 16 19 20 25 23 20 23 29 24 32 29 38 7 11 14 12 9 10 10 12 9 8 9 13 19 19 16 14 13 12 12 11 11 11 10 9 9 8 8 8 8
3 3 6 23 11 12 16 29 31 25 22 21 29 41 13 17 13 14 17 18 13 12 13 12 11 9 18 23 21 19 16 15 15 15 14 13 12 12 11 10 9 9 10 11
7 13 5 5 3 20 12 3 20 29 31 26 31 38 30 25 20 11 15 19 15 14 10 9 9 16 22 20 17 16 15 15 15 15 14 14 14 13 13 12 12 11 9 8
12 4 3 6 12 11 20 10 9 15 31 30 27 34 40 31 3 17 24 17 20 16 13 17 25 24 25 23 19 17 16 16 15 15 14 14 14 15 14 13 11 9 7 5
15 14 7 2 8 13 16 24 5 6 19 26 26 36 41 6 12 28 23 11 16 13 18 22 32 29 26 21 20 19 18 17 16 14 13 12 12 11 11 11 12 10 8 7
5 7 17 16 9 6 15 27 6 16 21 32 18 28 26 16 24 36 14 18 16 14 19 24 28 28 31 25 23 21 19 17 15 15 15 13 13 13 12 12 11 11 10 9
11 7 7 10 8 15 16 3 17 24 28 28 19 26 28 28 34 34 17 12 10 11 15 27 24 24 28 26 26 24 22 19 18 17 16 15 15 14 14 13 12 12 12 12
12 12 8 12 8 16 7 10 16 14 15 15 23 21 11 18 24 26 17 11 12 13 16 23 26 26 29 29 29 27 24 23 23 21 20 19 18 16 14 14 14 14 12 13
6 15 16 13 23 22 13 9 8 3 7 7 8 12 8 13 16 14 9 10 11 10 13 22 24 21 21 27 26 27 28 27 26 24 22 21 21 20 17 16 13 14 14 15
5 0 14 13 20 9 11 4 10 16 15 10 8 5 8 9 10 8 7 9 12 13 15 21 22 20 21 29 27 29 30 30 29 27 25 23 23 23 23 20 18 18 16 12
3 3 4 10 7 5 10 13 23 13 15 15 13 10 8 6 10 5 6 8 11 12 20 16 18 21 24 28 31 30 31 31 32 30 28 28 28 26 26 27 24 16 15 15
Wind_Direction
173 164 211 205 212 62 126 212 203 242 263 192 237 254 247 266 228 253 259 258 241 230 249 236 236 233 231 229 229 227 225 225 224 223 226 230 232 234 234 236 237 239 238 238
137 216 194 140 108 301 123 211 273 290 265 196 274 269 245 247 245 227 229 246 245 239 233 231 230 230 230 228 230 230 229 229 228 229 229 229 232 238 240 241 242 241 240 239
176 152 152 182 178 243 268 230 235 243 330 283 315 271 259 241 240 245 229 233 240 232 235 229 216 221 227 226 228 228 230 230 231 230 227 229 232 239 241 240 240 240 240 240
231 179 167 181 214 195 224 189 224 243 312 250 124 285 255 220 237 256 249 226 236 235 232 232 217 215 218 230 228 228 230 230 230 229 219 220 221 225 234 238 241 241 241 242
204 169 172 188 179 183 232 160 190 198 191 322 243 285 270 254 243 249 251 239 224 232 231 234 215 220 227 231 228 230 226 228 229 227 222 223 225 231 237 240 245 245 246 246
204 183 171 181 157 177 134 96 84 79 224 254 236 210 207 220 202 238 241 237 228 228 228 236 234 226 223 235 227 222 222 226 225 227 228 226 226 228 229 237 241 246 248 248
199 192 295 140 132 119 185 145 168 210 194 242 261 195 247 272 243 224 235 237 235 219 226 233 228 213 216 217 220 219 219 217 222 225 227 229 232 230 233 237 240 238 246 248
208 203 201 190 201 187 198 187 174 199 197 245 137 234 249 225 233 243 242 249 257 243 226 222 232 229 222 218 216 215 213 216 218 221 227 231 230 231 235 235 238 247 249 254
181 232 129 183 171 165 164 215 163 77 90 39 220 280 285 237 251 248 257 253 253 245 219 228 230 233 234 228 220 217 216 220 219 222 225 227 232 231 233 238 242 248 252 256
200 279 180 181 139 221 190 127 177 155 187 249 250 258 238 211 243 254 254 252 250 249 227 221 228 231 231 230 231 225 225 224 227 228 228 229 232 236 240 241 246 248 253 255
99 229 359 137 203 198 177 191 197 155 183 223 259 257 211 215 221 236 247 257 280 249 231 209 206 221 221 220 219 222 224 226 228 230 233 234 237 240 243 244 249 252 255 258
180 177 210 219 13 206 219 219 198 196 217 243 342 267 160 224 265 270 283 291 263 233 241 216 190 199 208 213 210 213 217 222 228 231 233 237 242 244 244 246 250 255 259 263
173 221 249 260 325 198 216 217 223 227 347 229 230 258 79 351 314 276 271 270 272 264 212 179 189 192 197 196 190 194 203 212 218 222 226 230 236 241 245 248 252 255 258 261
162 192 216 229 235 147 214 217 222 219 233 242 234 258 244 294 308 301 285 278 278 235 224 200 192 195 191 185 174 168 167 179 188 198 207 216 225 230 234 237 239 238 238 239
204 248 234 251 264 270 281 243 221 223 233 231 246 247 264 243 249 258 282 286 287 261 228 215 198 192 185 176 171 166 168 174 179 180 185 191 199 204 207 211 216 220 225 232
246 239 204 257 257 254 265 263 255 245 235 236 250 256 256 243 229 254 254 240 238 228 227 231 206 186 191 190 185 180 177 176 179 181 182 181 180 183 188 189 188 179 180 195
201 227 206 254 251 257 251 238 238 246 249 248 244 246 274 257 227 227 246 256 237 228 222 221 207 196 197 193 189 188 183 180 180 180 179 178 177 177 178 176 173 174 179 188
184 199 209 283 246 237 255 308 238 235 238 229 239 253 259 256 250 244 240 246 239 228 205 205 216 209 207 193 188 187 183 182 181 179 180 181 180 178 178 177 177 172 169 168
218 171 233 215 248 304 305 266 213 222 245 243 240 245 250 246 23 264 234 224 231 227 210 203 212 207 195 187 184 180 176 175 176 180 183 183 186 184 180 173 163 156 147 138
210 215 212 174 240 253 261 265 192 207 255 254 231 241 247 179 238 252 240 213 228 218 197 193 200 201 192 182 181 179 178 179 180 182 182 181 185 185 171 160 153 144 136 121
187 204 212 227 243 262 243 253 128 231 253 258 233 247 253 228 233 251 236 229 220 212 195 191 183 175 188 182 180 183 181 180 175 174 172 172 170 164 161 157 155 143 134 124
197 193 208 224 228 252 242 132 214 244 248 243 227 230 230 229 238 245 240 220 185 174 162 172 166 176 180 180 181 180 179 170 167 165 158 152 152 151 150 149 146 146 147 135
235 212 213 195 208 240 212 203 219 241 252 250 232 236 226 233 240 245 235 196 194 184 178 175 168 164 176 178 183 173 173 163 158 153 149 149 146 142 137 145 144 139 138 131
251 229 237 254 253 257 251 281 290 325 285 310 310 273 225 235 239 242 198 188 179 172 173 168 155 157 161 175 181 182 165 160 156 150 148 148 139 132 131 128 129 125 113 111
257 298 239 248 259 318 268 56 4 337 312 300 277 252 272 269 239 208 192 189 186 169 165 170 165 162 157 167 171 170 164 160 156 153 149 143 138 133 127 121 119 116 106 99
30 324 242 242 25 306 275 318 323 340 317 324 296 291 271 245 265 192 196 185 171 165 159 156 150 147 153 161 166 164 164 164 158 152 153 149 146 142 136 127 113 104 107 104